Hovedside
METAR-TAF:

METAR-TAF

Lufthavner :

Båtsfjord, Norge

Båtsfjord lufthavn

breddegrad: 70-38N, lengdegrad: 029-44E, høyde over havet: 10 m

Gjeldene værobservasjon

Denne rapporten ble laget for 1 time og 15 minutter siden, klokken 09:50 UTC
Vind 19 kt fra Nordøst
Temperatur 0°C
Luftfuktighet 59%
Trykk 1009 hPa
Sikt 10 km eller mer
Få skyer i en høyde av 92800 ft
Spredte skyer i en høyde av 4400 ft

METAR: ENBS 270950Z 04019KT 9999 FEW928 SCT044 M00/M07 Q1009

Tid: 13:05 (11:05 UTC)


TAF: fraværende

Værobservasjoner og værvarsel for over 4000 flyplasser (METAR- og TAF-rapporter).

Tilgjengelige stasjoner er representert av de røde og gule prikkene på kartet.

Hold musepekeren over prikken for å se navnet på stasjonen.

Klikk så for å se værobservasjoner og -varsler.

For å forandre kartet kan du klikke på den grønne knappen med svart kryss for å zoome inn, på den grønne knappen med strek for å zoome ut, eller på de grønne pilene for å se tilstøtende kart.


METAR-TAF: